Location: Norwich
(42.5310°N, 75.5240°W)
Time: 05:37:25
(UTC-04:00)

ISS - Visible Passes

Search period start: 19 March 2019 00:00
Search period end: 29 March 2019 00:00
Orbit: 406 x 411 km, 51.6° (Epoch: 19 March)

Date Brightness Start Highest point End Pass type
(mag) Time Alt. Az. Time Alt. Az. Time Alt. Az.
20 Mar -2.4 20:53:21 10° SSW 20:55:12 27° S 20:55:12 27° S visible
21 Mar -2.5 20:02:54 10° S 20:05:34 23° SE 20:07:14 16° E visible
21 Mar -1.3 21:38:46 10° WSW 21:40:02 21° W 21:40:02 21° W visible
22 Mar -3.8 20:47:34 10° WSW 20:50:52 79° NNW 20:51:50 42° NE visible
23 Mar -3.7 19:56:35 10° SW 19:59:49 57° SE 20:03:04 10° ENE visible
23 Mar -1.7 21:33:42 10° W 21:36:12 26° NNW 21:36:12 26° NNW visible
24 Mar -2.5 20:42:14 10° W 20:45:21 38° NNW 20:47:36 16° NE visible
24 Mar -0.2 22:20:17 10° NW 22:20:21 10° NW 22:20:21 10° NW visible
25 Mar -3.3 19:50:55 10° WSW 19:54:11 60° NNW 19:57:28 10° NE visible
25 Mar -1.5 21:28:46 10° WNW 21:31:15 19° NNW 21:31:36 19° N visible
26 Mar -1.7 20:37:11 10° WNW 20:39:56 24° NNW 20:42:40 10° NE visible
26 Mar -0.4 22:15:05 10° NW 22:15:28 12° NW 22:15:28 12° NW visible
27 Mar -1.4 21:23:43 10° NW 21:25:57 17° N 21:26:30 16° N visible
28 Mar -1.4 20:32:11 10° NW 20:34:34 18° N 20:36:56 10° NE visible
28 Mar -0.6 22:09:30 10° NW 22:10:12 13° NNW 22:10:12 13° NNW visible
